Flag for Germany Weather past 2 weeks in Konstanz, Baden-Württemberg, Germany

48 °F

Sprinkles. Overcast.

Feels Like: 41 °F
Forecast: 46 / 49 °F
Wind: 21 mph from Southwest

Location: Friedrichshafen Airport

Current Time: Nov 30, 2015 at 12:53:11 AM

Latest Report: Nov 29, 2015 at 11:50 PM

Visibility: N/A

Pressure: 30.27 "Hg

Humidity: 66%

Dew point: 37 °F

Location of KonstanzLocation

Historic Weather in Konstanz — Graph


Konstanz temperature yesterday

Maximum temperature yesterday: 48 °F (at 9:20 PM)
Minimum temperature yesterday: 37 °F (at 12:20 AM)
Average temperature yesterday: 42 °F

Past Weeks' High & Low Weather Summary

High63 °F (Nov 15, 1:50 PM)93% (Nov 16, 2:20 AM)30.30 "Hg (Nov 16, 2:20 AM)
Low23 °F (Nov 24, 5:20 AM)36% (Nov 15, 12:50 PM)29.42 "Hg (Nov 21, 1:50 PM)
Average42 °F73%30.01 "Hg
* Reported Nov 14 11:20 PM — Nov 29 11:20 PM, Konstanz, Weather by CustomWeather, © 2015

Note: Actual official high and low records may vary slightly from our data, if they occured in-between our weather recording intervals... More about our weather records


Konstanz weather history for previous 24 hours

Time TempWeatherWind HumidityBarometerVisibility
11:20 PM
Sun, Nov 29
48 °FLight rain. Overcast.20 mph62%30.27 "HgN/A
10:50 PM48 °FMostly cloudy.22 mph62%30.24 "HgN/A
10:20 PM48 °FOvercast.23 mph62%30.27 "HgN/A
9:50 PM48 °FPartly cloudy.21 mph62%30.27 "HgN/A
9:20 PM48 °FLight rain. Overcast.21 mph62%30.27 "HgN/A
8:50 PM46 °FPartly cloudy.24 mph66%30.24 "HgN/A
8:20 PM46 °FSprinkles. Mostly cloudy.15 mph66%30.24 "HgN/A
7:50 PM46 °FMostly cloudy.22 mph66%30.24 "HgN/A
7:20 PM46 °FSprinkles. Mostly cloudy.18 mph66%30.24 "HgN/A
6:50 PM46 °FOvercast.18 mph66%30.24 "HgN/A
6:20 PM46 °FMostly cloudy.18 mph66%30.24 "HgN/A
5:50 PM46 °FMostly cloudy.16 mph66%30.24 "HgN/A
5:20 PM46 °FMostly cloudy.17 mph66%30.24 "HgN/A
4:50 PM45 °FMostly cloudy.18 mph71%30.24 "HgN/A
4:20 PM45 °FOvercast.16 mph71%30.24 "HgN/A
3:50 PM45 °FMostly cloudy.20 mph66%30.21 "HgN/A
3:20 PM45 °FSprinkles. Overcast.18 mph66%30.21 "HgN/A
2:50 PM43 °FOvercast.16 mph71%30.21 "HgN/A
2:20 PM43 °FSprinkles. Overcast.18 mph71%30.21 "HgN/A
1:50 PM43 °FMostly cloudy.14 mph71%30.21 "HgN/A
1:20 PM43 °FOvercast.12 mph71%30.21 "HgN/A
12:50 PM41 °FDrizzle. Mostly cloudy.9 mph76%30.21 "HgN/A
12:20 PM41 °FMostly cloudy.13 mph70%30.21 "HgN/A
11:50 AM41 °FMostly cloudy.12 mph70%30.21 "HgN/A
11:20 AM39 °FLight rain. Mostly cloudy.14 mph75%30.21 "HgN/A
10:20 AM41 °FLight rain. Mostly cloudy.13 mph70%30.21 "HgN/A
9:50 AM41 °FLight rain. Overcast.14 mph66%30.21 "HgN/A
9:20 AM43 °FLight rain. Mostly cloudy.15 mph57%30.21 "HgN/A
8:50 AM39 °FOvercast.3 mph65%30.21 "HgN/A
7:50 AM39 °FMostly cloudy.12 mph61%30.18 "HgN/A
7:20 AM41 °FMostly cloudy.16 mph53%30.18 "HgN/A
6:50 AM39 °FOvercast.15 mph61%30.18 "HgN/A
5:50 AM39 °FOvercast.10 mph65%30.21 "HgN/A
5:20 AM37 °FMostly cloudy.12 mph65%30.21 "HgN/A
4:50 AM37 °FPassing clouds.10 mph65%30.21 "HgN/A
4:20 AM37 °FClear.15 mph65%30.18 "Hg10 mi
3:50 AM37 °FPassing clouds.12 mph65%30.18 "HgN/A
3:20 AM37 °FPassing clouds.9 mph65%30.21 "HgN/A
2:55 AM37 °FPartly cloudy.12 mph65%30.21 "HgN/A
2:50 AM37 °FPassing clouds.12 mph65%30.21 "HgN/A
2:20 AM37 °FPassing clouds.15 mph65%30.21 "HgN/A
1:50 AM37 °FClear.12 mph65%30.21 "Hg10 mi
1:20 AM37 °FClear.13 mph65%30.21 "Hg10 mi
12:50 AM37 °FClear.14 mph65%30.21 "Hg10 mi
12:20 AM37 °FClear.12 mph65%30.21 "Hg10 mi
Weather by CustomWeather, © 2015

See weather overviewHow to use our weather pages